Weather History for New Bedford, MA

Change the Weather History Date:

Saturday, April 5, 2014

  Actual Average Record
Temperature  
Mean Temperature 46 °F -  
Max Temperature 55 °F 53 °F 66 °F (1955)
Min Temperature 39 °F 38 °F 22 °F (1982)
Degree Days  
Heating Degree Days 19    
Moisture  
Dew Point 36 °F    
Average Humidity 75    
Maximum Humidity 97    
Minimum Humidity 41    
Precipitation  
Precipitation 0.12 in - - ()
Sea Level Pressure  
Sea Level Pressure 29.76 in    
Wind  
Wind Speed 8 mph (NW)    
Max Wind Speed 21 mph    
Max Gust Speed 29 mph    
Visibility 8 miles    
Events Rain    
Averages and records for this station are not official NWS values.
T = Trace of Precipitation, MM = Missing Value Source: NWS Daily Summary

Daily Weather History Graph

Daily Weather History Graph

Search for Another Location

Airport:

Trip Planner

Search our weather history database for the weather conditions in past years. The results will help you decide how hot, cold, wet, or windy it might be!

Date:

Astronomy

Apr. 05, 2014 Rise Set
Actual Time 6:20 AM EDT 7:13 PM EDT
Civil Twilight 5:51 AM EDT 7:41 PM EDT
Nautical Twilight 5:18 AM EDT 8:15 PM EDT
Astronomical Twilight 4:43 AM EDT 8:50 PM EDT
Moon 10:22 AM EDT (4/5) 12:23 AM EDT (4/5)
Length of Visible Light 13h 49m
Length of Day
12h 53m
Waxing Crescent, 34% of the Moon is Illuminated
Apr 5
Waxing Crescent
Apr 7
First Quarter
Apr 15
Full
Apr 22
Last Quarter
Apr 29
New

Hourly Weather History & Observations

Time (EDT) Temp. Windchill Dew Point Humidity Pressure Visibility Wind Dir Wind Speed Gust Speed Precip Events Conditions
12:05 AM 39.0 °F 35.7 °F 37.0 °F 93% 29.85 in 4.0 mi Variable 4.6 mph - 0.03 in Rain Rain
12:53 AM 39.0 °F 33.4 °F 37.0 °F 93% 29.81 in 4.0 mi ENE 8.1 mph - 0.08 in Rain Rain
1:39 AM 39.9 °F 35.8 °F 37.9 °F 93% 29.78 in 9.0 mi NNE 5.8 mph - 0.02 in Rain Light Rain
1:53 AM 39.9 °F 34.5 °F 37.9 °F 93% 29.76 in 5.0 mi ENE 8.1 mph - 0.03 in Rain Light Rain
2:08 AM 39.9 °F 34.5 °F 39.0 °F 97% 29.75 in 10.0 mi NNE 8.1 mph - 0.00 in Rain Light Rain
2:53 AM 39.9 °F 36.7 °F 39.0 °F 97% 29.73 in 8.0 mi North 4.6 mph - 0.01 in Rain Light Rain
3:53 AM 39.9 °F 36.7 °F 39.0 °F 97% 29.69 in 4.0 mi NNE 4.6 mph - 0.00 in Rain Light Rain
4:53 AM 39.9 °F 35.8 °F 39.0 °F 97% 29.66 in 6.0 mi North 5.8 mph - 0.00 in   Overcast
5:53 AM 39.9 °F 35.8 °F 39.0 °F 97% 29.68 in 3.0 mi Variable 5.8 mph - N/A   Overcast
6:41 AM 39.9 °F 36.7 °F 39.0 °F 97% 29.67 in 2.5 mi NW 4.6 mph - N/A   Overcast
6:53 AM 41.0 °F 37.1 °F 39.0 °F 93% 29.68 in 3.0 mi NW 5.8 mph - N/A   Overcast
7:32 AM 41.0 °F 38.0 °F 39.9 °F 96% 29.69 in 2.5 mi NW 4.6 mph - N/A   Overcast
7:49 AM 41.0 °F 38.0 °F 39.2 °F 93% 29.70 in 5.0 mi Variable 4.6 mph - N/A   Overcast
7:53 AM 41.0 °F 38.0 °F 39.9 °F 96% 29.70 in 6.0 mi Variable 4.6 mph - N/A   Overcast
8:53 AM 42.1 °F 37.7 °F 41.0 °F 96% 29.72 in 10.0 mi WNW 6.9 mph - N/A   Overcast
9:31 AM 44.1 °F 40.8 °F 42.1 °F 93% 29.72 in 10.0 mi NW 5.8 mph - N/A   Overcast
9:53 AM 45.0 °F 40.6 °F 42.1 °F 90% 29.72 in 10.0 mi West 8.1 mph - N/A   Overcast
10:26 AM 46.0 °F 40.6 °F 42.1 °F 86% 29.73 in 10.0 mi West 11.5 mph 18.4 mph N/A   Overcast
10:53 AM 46.9 °F - 41.0 °F 80% 29.73 in 10.0 mi West 10.4 mph - N/A   Overcast
11:53 AM 51.1 °F - 41.0 °F 68% 29.72 in 10.0 mi West 12.7 mph - N/A   Mostly Cloudy
12:53 PM 51.1 °F - 39.0 °F 63% 29.73 in 10.0 mi West 13.8 mph - N/A   Overcast
1:48 PM 53.6 °F - 37.4 °F 54% 29.72 in 10.0 mi WNW 11.5 mph 19.6 mph N/A   Mostly Cloudy
1:53 PM 53.1 °F - 37.9 °F 57% 29.72 in 10.0 mi WNW 10.4 mph 19.6 mph N/A   Mostly Cloudy
2:53 PM 52.0 °F - 37.0 °F 57% 29.72 in 10.0 mi West 11.5 mph 24.2 mph N/A   Overcast
3:53 PM 53.1 °F - 33.1 °F 47% 29.73 in 10.0 mi West 17.3 mph 21.9 mph N/A   Overcast
4:53 PM 53.1 °F - 30.0 °F 41% 29.75 in 10.0 mi West 20.7 mph 27.6 mph N/A   Mostly Cloudy
5:53 PM 52.0 °F - 30.0 °F 43% 29.77 in 10.0 mi WNW 12.7 mph 19.6 mph N/A   Partly Cloudy
6:53 PM 50.0 °F - 28.9 °F 44% 29.79 in 10.0 mi WNW 9.2 mph - N/A   Clear
7:53 PM 48.0 °F - 26.1 °F 42% 29.83 in 10.0 mi WNW 13.8 mph 24.2 mph N/A   Clear
8:53 PM 44.1 °F 37.1 °F 24.1 °F 45% 29.89 in 10.0 mi NW 15.0 mph 28.8 mph N/A   Clear
9:53 PM 42.1 °F 35.2 °F 21.9 °F 45% 29.91 in 10.0 mi WNW 12.7 mph 18.4 mph N/A   Clear
10:53 PM 39.9 °F 32.9 °F 21.9 °F 49% 29.93 in 10.0 mi WNW 11.5 mph 23.0 mph N/A   Clear
11:53 PM 39.0 °F 31.8 °F 21.9 °F 50% 29.95 in 10.0 mi WNW 11.5 mph - N/A   Clear